Regional Weather Roundup
Issued by NWS Glasgow, MT

Home | Current Version | Previous Version | Text Only | Print | Product List | Glossary On
Versions: 1 2 3 4 5 6 7 8 9 10 11 12 13 14 15 16 17 18 19 20 21 22 23 24 25 26 27 28
000
ASUS45 KGGW 290115
RWRGGW
HOURLY REGIONAL WEATHER ROUNDUP FOR NORTHEAST MONTANA
NATIONAL WEATHER SERVICE GLASGOW MONTANA
700 PM MDT SUN AUG 28 2016

NOTE: "FAIR" INDICATES FEW OR NO CLOUDS BELOW 12,000 FEET WITH NO
SIGNIFICANT WEATHER AND/OR OBSTRUCTIONS TO VISISBILITY.

NORTHEAST MONTANA


CITY           SKY/WX    TMP DP  RH WIND       PRES   REMARKS
GLASGOW        CLEAR     79  46  31 N9        30.05R
PLENTYWOOD       N/A     75  41  29 N12         N/A
WOLF POINT     MOCLDY    84  48  28 N13       30.02R
JORDAN           N/A     81  43  26 N14       30.04R
SIDNEY         CLEAR     82  51  34 N13       30.00R
GLENDIVE       CLEAR     83  45  26 N9        30.02R
MALTA            N/A     79  49  34 N8          N/A
SCOBEY           N/A     75  46  35 N10       30.07R

FORT PECK REPORTS


CITY           SKY/WX    TMP DP  RH WIND       PRES   REMARKS
FORT PECK        N/A     81  46  29 NW12        N/A
THE PINES        N/A     81  44  27 N6          N/A

SOUTHEAST MONTANA


CITY           SKY/WX    TMP DP  RH WIND       PRES   REMARKS
BILLINGS       CLOUDY    81  41  24 NE8       30.05R
MILES CITY     CLEAR     88  40  18 NE14      29.99R
BAKER          CLEAR     84  42  22 N15       30.03R
LIVINGSTON     PTSUNNY   83  38  20 N7        30.11R

CENTRAL MONTANA


CITY           SKY/WX    TMP DP  RH WIND       PRES   REMARKS
HAVRE          MOSUNNY   73  46  38 N10       30.12R
LEWISTOWN      MOCLDY    73  44  35 NE9       30.15R
GREAT FALLS    MOSUNNY   72  45  37 NE16      30.13R
CUT BANK       SUNNY     65  42  43 NE9       30.17R
HELENA         SUNNY     83  31  15 W15G21    30.09R
BUTTE          PTSUNNY   76  32  20 NW10      30.20R
BOZEMAN        MOSUNNY   82  42  24 N8        30.12R

WESTERN MONTANA


CITY           SKY/WX    TMP DP  RH WIND       PRES   REMARKS
MISSOULA       SUNNY     82  30  15 NW14      30.08R
KALISPELL      NOT AVBL

NORTH DAKOTA


CITY           SKY/WX    TMP DP  RH WIND       PRES   REMARKS
WILLISTON      CLEAR     81  49  32 N13       30.02R
DICKINSON      CLOUDY    82  41  23 N8        29.98R
MINOT          CLEAR     80  57  45 NW12      29.93R
BISMARCK       CLEAR     81  63  54 SE6       29.91R

SOUTHERN SASKATCHEWAN


CITY           SKY/WX    TMP DP  RH WIND       PRES   REMARKS
REGINA         MOCLDY    66  48  52 NW16G23   30.06R
ESTEVAN        PTCLDY    72  54  53 NW6       30.02R
SWIFT CURRENT  CLEAR     59  45  58 NW14      30.13R





USA.gov is the U.S. government's official web portal to all federal, state and local government web resources and services.